Time,TemperatureF,DewpointF,PressureIn,WindDirection,WindDirectionDegrees,WindSpeedMPH,WindSpeedGustMPH,Humidity,HourlyPrecipIn,Conditions,Clouds,dailyrainin,SoftwareType,DateUTC
2013-08-06 00:00:00,55.4,50.3,30.05,NW,304,0.0,0.0,83,0.00,,,0.00,WeatherTracker,2013-08-06 04:00:00,
2013-08-06 00:05:00,55.3,50.5,30.05,NW,304,0.0,0.0,84,0.00,,,0.00,WeatherTracker,2013-08-06 04:05:00,
2013-08-06 00:10:00,55.1,50.4,30.06,NW,304,0.0,0.0,84,0.00,,,0.00,WeatherTracker,2013-08-06 04:10:00,
2013-08-06 00:15:00,54.9,50.5,30.05,NW,304,0.0,0.0,85,0.00,,,0.00,WeatherTracker,2013-08-06 04:15:00,
2013-08-06 00:20:00,54.8,50.4,30.05,NW,304,0.0,0.0,85,0.00,,,0.00,WeatherTracker,2013-08-06 04:20:00,
2013-08-06 00:25:00,54.7,50.3,30.06,NW,304,0.0,0.0,85,0.00,,,0.00,WeatherTracker,2013-08-06 04:25:00,
2013-08-06 00:30:00,54.6,50.2,30.06,NW,304,0.0,0.0,85,0.00,,,0.00,WeatherTracker,2013-08-06 04:30:00,
2013-08-06 00:35:00,54.5,50.4,30.06,NW,304,0.0,0.0,86,0.00,,,0.00,WeatherTracker,2013-08-06 04:35:00,
2013-08-06 00:45:00,54.4,50.6,30.05,NW,304,0.0,0.0,87,0.00,,,0.00,WeatherTracker,2013-08-06 04:45:00,
2013-08-06 00:50:00,54.3,50.8,30.05,NW,304,1.0,0.0,88,0.00,,,0.00,WeatherTracker,2013-08-06 04:50:00,
2013-08-06 01:00:00,54.0,50.8,30.05,WNW,303,1.0,0.0,89,0.00,,,0.00,WeatherTracker,2013-08-06 05:00:00,
2013-08-06 01:05:00,53.9,50.7,30.05,WNW,303,0.0,0.0,89,0.00,,,0.00,WeatherTracker,2013-08-06 05:05:00,
2013-08-06 01:15:00,53.7,50.8,30.05,WNW,303,0.0,0.0,90,0.00,,,0.00,WeatherTracker,2013-08-06 05:15:00,
2013-08-06 01:25:00,53.5,50.6,30.05,WNW,303,0.0,0.0,90,0.00,,,0.00,WeatherTracker,2013-08-06 05:25:00,
2013-08-06 01:30:00,53.5,50.6,30.05,WNW,303,1.0,0.0,90,0.00,,,0.00,WeatherTracker,2013-08-06 05:30:00,
2013-08-06 01:40:00,53.3,50.4,30.05,WNW,303,0.0,0.0,90,0.00,,,0.00,WeatherTracker,2013-08-06 05:40:00,
2013-08-06 01:45:00,53.2,50.3,30.05,WNW,303,1.0,0.0,90,0.00,,,0.00,WeatherTracker,2013-08-06 05:45:00,
2013-08-06 01:55:00,53.1,50.2,30.05,WNW,303,0.0,0.0,90,0.00,,,0.00,WeatherTracker,2013-08-06 05:55:00,
2013-08-06 02:05:00,53.0,50.4,30.05,WNW,303,0.0,0.0,91,0.00,,,0.00,WeatherTracker,2013-08-06 06:05:00,
2013-08-06 02:10:00,53.0,50.4,30.05,WNW,303,0.0,0.0,91,0.00,,,0.00,WeatherTracker,2013-08-06 06:10:00,
2013-08-06 02:20:00,52.9,50.6,30.06,WNW,303,0.0,0.0,92,0.00,,,0.00,WeatherTracker,2013-08-06 06:20:00,
2013-08-06 02:25:00,52.9,50.6,30.06,WNW,303,1.0,0.0,92,0.00,,,0.00,WeatherTracker,2013-08-06 06:25:00,
2013-08-06 02:35:00,52.7,50.7,30.06,WNW,300,0.0,0.0,93,0.00,,,0.00,WeatherTracker,2013-08-06 06:35:00,
2013-08-06 02:40:00,52.7,50.7,30.06,WNW,300,0.0,0.0,93,0.00,,,0.00,WeatherTracker,2013-08-06 06:40:00,
2013-08-06 02:45:00,52.7,50.7,30.06,WNW,300,0.0,0.0,93,0.00,,,0.00,WeatherTracker,2013-08-06 06:45:00,
2013-08-06 02:55:00,52.6,50.6,30.06,WNW,300,0.0,0.0,93,0.00,,,0.00,WeatherTracker,2013-08-06 06:55:00,
2013-08-06 03:00:00,52.6,50.9,30.06,WNW,300,0.0,0.0,94,0.00,,,0.00,WeatherTracker,2013-08-06 07:00:00,
2013-08-06 03:10:00,52.6,50.9,30.07,WNW,290,1.0,0.0,94,0.00,,,0.00,WeatherTracker,2013-08-06 07:10:00,
2013-08-06 03:15:00,52.5,50.8,30.07,WNW,284,0.0,0.0,94,0.00,,,0.00,WeatherTracker,2013-08-06 07:15:00,
2013-08-06 03:25:00,52.5,51.1,30.07,WNW,284,0.0,0.0,95,0.00,,,0.00,WeatherTracker,2013-08-06 07:25:00,
2013-08-06 03:35:00,52.5,51.1,30.07,WNW,283,0.0,0.0,95,0.00,,,0.00,WeatherTracker,2013-08-06 07:35:00,
2013-08-06 03:40:00,52.4,51.0,30.07,WNW,284,0.0,0.0,95,0.00,,,0.00,WeatherTracker,2013-08-06 07:40:00,
2013-08-06 03:50:00,52.3,50.9,30.07,WNW,283,0.0,0.0,95,0.00,,,0.00,WeatherTracker,2013-08-06 07:50:00,
2013-08-06 03:55:00,52.3,50.9,30.07,WNW,283,0.0,0.0,95,0.00,,,0.00,WeatherTracker,2013-08-06 07:55:00,
2013-08-06 04:05:00,52.2,50.8,30.07,WNW,282,1.0,0.0,95,0.00,,,0.00,WeatherTracker,2013-08-06 08:05:00,
2013-08-06 04:10:00,52.1,50.7,30.07,WNW,282,1.0,0.0,95,0.00,,,0.00,WeatherTracker,2013-08-06 08:10:00,
2013-08-06 04:20:00,52.1,50.7,30.07,WNW,282,0.0,0.0,95,0.00,,,0.00,WeatherTracker,2013-08-06 08:20:00,
2013-08-06 04:30:00,52.0,50.6,30.07,WNW,282,0.0,0.0,95,0.00,,,0.00,WeatherTracker,2013-08-06 08:30:00,
2013-08-06 04:40:00,51.8,50.4,30.08,WNW,282,0.0,0.0,95,0.00,,,0.00,WeatherTracker,2013-08-06 08:40:00,
2013-08-06 04:50:00,51.7,50.3,30.08,WNW,282,1.0,0.0,95,0.00,,,0.00,WeatherTracker,2013-08-06 08:50:00,
2013-08-06 05:00:00,51.6,50.2,30.08,WNW,282,0.0,0.0,95,0.00,,,0.00,WeatherTracker,2013-08-06 09:00:00,
2013-08-06 05:05:00,51.6,50.2,30.08,WNW,282,0.0,0.0,95,0.00,,,0.00,WeatherTracker,2013-08-06 09:05:00,
2013-08-06 05:15:00,51.4,50.0,30.08,WNW,282,0.0,0.0,95,0.00,,,0.00,WeatherTracker,2013-08-06 09:15:00,
2013-08-06 05:25:00,51.4,50.3,30.08,WNW,282,1.0,0.0,96,0.00,,,0.00,WeatherTracker,2013-08-06 09:25:00,
2013-08-06 05:35:00,51.4,50.3,30.08,WNW,282,0.0,0.0,96,0.00,,,0.00,WeatherTracker,2013-08-06 09:35:00,
2013-08-06 05:40:00,51.4,50.3,30.09,WNW,282,1.0,0.0,96,0.00,,,0.00,WeatherTracker,2013-08-06 09:40:00,
2013-08-06 05:45:00,51.3,50.2,30.09,WNW,282,1.0,0.0,96,0.00,,,0.00,WeatherTracker,2013-08-06 09:45:00,
2013-08-06 05:50:00,51.3,50.2,30.09,WNW,282,0.0,0.0,96,0.00,,,0.00,WeatherTracker,2013-08-06 09:50:00,
2013-08-06 06:00:00,51.2,50.1,30.09,WNW,282,0.0,0.0,96,0.00,,,0.00,WeatherTracker,2013-08-06 10:00:00,
2013-08-06 06:10:00,51.3,50.2,30.10,WNW,282,0.0,0.0,96,0.00,,,0.00,WeatherTracker,2013-08-06 10:10:00,
2013-08-06 06:20:00,51.4,50.3,30.10,WNW,282,0.0,0.0,96,0.00,,,0.00,WeatherTracker,2013-08-06 10:20:00,
2013-08-06 06:25:00,51.4,50.3,30.10,WNW,282,0.0,0.0,96,0.00,,,0.00,WeatherTracker,2013-08-06 10:25:00,
2013-08-06 06:35:00,51.7,50.9,30.10,WNW,282,0.0,0.0,97,0.00,,,0.00,WeatherTracker,2013-08-06 10:35:00,
2013-08-06 06:40:00,52.0,51.2,30.10,WNW,282,1.0,0.0,97,0.00,,,0.00,WeatherTracker,2013-08-06 10:40:00,
2013-08-06 06:50:00,52.4,51.6,30.11,WNW,282,0.0,0.0,97,0.00,,,0.00,WeatherTracker,2013-08-06 10:50:00,
2013-08-06 06:55:00,52.6,51.8,30.11,WNW,282,0.0,0.0,97,0.00,,,0.00,WeatherTracker,2013-08-06 10:55:00,
2013-08-06 07:00:00,52.8,51.7,30.11,WNW,282,0.0,0.0,96,0.00,,,0.00,WeatherTracker,2013-08-06 11:00:00,
2013-08-06 07:05:00,52.9,51.8,30.11,WNW,282,0.0,0.0,96,0.00,,,0.00,WeatherTracker,2013-08-06 11:05:00,
2013-08-06 07:15:00,53.5,52.7,30.11,WNW,282,0.0,0.0,97,0.00,,,0.00,WeatherTracker,2013-08-06 11:15:00,
2013-08-06 07:20:00,54.0,53.2,30.11,WNW,282,0.0,0.0,97,0.00,,,0.00,WeatherTracker,2013-08-06 11:20:00,
2013-08-06 07:25:00,54.4,53.6,30.11,WNW,282,0.0,0.0,97,0.00,,,0.00,WeatherTracker,2013-08-06 11:25:00,
2013-08-06 07:35:00,55.4,54.3,30.12,WNW,282,0.0,0.0,96,0.00,,,0.00,WeatherTracker,2013-08-06 11:35:00,
2013-08-06 07:40:00,56.0,54.9,30.12,WNW,282,0.0,0.0,96,0.00,,,0.00,WeatherTracker,2013-08-06 11:40:00,
2013-08-06 07:45:00,56.8,55.1,30.12,WNW,282,0.0,0.0,94,0.00,,,0.00,WeatherTracker,2013-08-06 11:45:00,
2013-08-06 07:50:00,57.7,55.4,30.12,WNW,282,0.0,0.0,92,0.00,,,0.00,WeatherTracker,2013-08-06 11:50:00,
2013-08-06 08:00:00,59.3,55.7,30.12,WNW,282,0.0,0.0,88,0.00,,,0.00,WeatherTracker,2013-08-06 12:00:00,
2013-08-06 08:10:00,60.9,56.4,30.12,West,281,0.0,0.0,85,0.00,,,0.00,WeatherTracker,2013-08-06 12:10:00,
2013-08-06 08:15:00,61.8,56.6,30.12,West,281,1.0,0.0,83,0.00,,,0.00,WeatherTracker,2013-08-06 12:15:00,
2013-08-06 08:25:00,63.2,56.6,30.12,WSW,254,0.0,0.0,79,0.00,,,0.00,WeatherTracker,2013-08-06 12:25:00,
2013-08-06 08:30:00,63.7,54.5,30.12,West,260,0.0,0.0,72,0.00,,,0.00,WeatherTracker,2013-08-06 12:30:00,
2013-08-06 08:35:00,64.3,54.3,30.12,WNW,295,3.0,0.0,70,0.00,,,0.00,WeatherTracker,2013-08-06 12:35:00,
2013-08-06 08:40:00,64.9,53.7,30.13,WNW,302,1.0,0.0,67,0.00,,,0.00,WeatherTracker,2013-08-06 12:40:00,
2013-08-06 08:45:00,65.4,55.0,30.13,WNW,294,1.0,0.0,69,0.00,,,0.00,WeatherTracker,2013-08-06 12:45:00,
2013-08-06 08:55:00,66.2,54.9,30.13,West,259,2.0,0.0,67,0.00,,,0.00,WeatherTracker,2013-08-06 12:55:00,
2013-08-06 09:05:00,67.4,53.5,30.12,WSW,250,0.0,0.0,61,0.00,,,0.00,WeatherTracker,2013-08-06 13:05:00,
2013-08-06 09:10:00,68.1,52.8,30.13,WSW,249,2.0,0.0,58,0.00,,,0.00,WeatherTracker,2013-08-06 13:10:00,
2013-08-06 09:20:00,68.8,53.4,30.13,SSW,201,0.0,0.0,58,0.00,,,0.00,WeatherTracker,2013-08-06 13:20:00,
2013-08-06 09:25:00,69.2,51.3,30.13,WSW,248,3.0,0.0,53,0.00,,,0.00,WeatherTracker,2013-08-06 13:25:00,
2013-08-06 09:30:00,69.5,51.1,30.13,SW,217,2.0,0.0,52,0.00,,,0.00,WeatherTracker,2013-08-06 13:30:00,
2013-08-06 09:35:00,69.7,52.8,30.13,SW,227,1.0,0.0,55,0.00,,,0.00,WeatherTracker,2013-08-06 13:35:00,
2013-08-06 09:40:00,70.1,53.2,30.13,SW,229,1.0,0.0,55,0.00,,,0.00,WeatherTracker,2013-08-06 13:40:00,
2013-08-06 09:45:00,70.5,52.5,30.13,NW,325,0.0,0.0,53,0.00,,,0.00,WeatherTracker,2013-08-06 13:45:00,
2013-08-06 09:50:00,70.8,51.8,30.13,NW,304,0.0,0.0,51,0.00,,,0.00,WeatherTracker,2013-08-06 13:50:00,
2013-08-06 10:00:00,71.5,51.9,30.13,NNW,348,0.0,0.0,50,0.00,,,0.00,WeatherTracker,2013-08-06 14:00:00,
2013-08-06 10:05:00,71.7,51.5,30.13,WNW,302,1.0,0.0,49,0.00,,,0.00,WeatherTracker,2013-08-06 14:05:00,
2013-08-06 10:15:00,72.2,50.8,30.13,West,259,4.0,0.0,47,0.00,,,0.00,WeatherTracker,2013-08-06 14:15:00,
2013-08-06 10:25:00,72.9,51.5,30.13,SSE,156,2.0,0.0,47,0.00,,,0.00,WeatherTracker,2013-08-06 14:25:00,
2013-08-06 10:35:00,73.6,52.7,30.13,WSW,251,2.0,0.0,48,0.00,,,0.00,WeatherTracker,2013-08-06 14:35:00,
2013-08-06 10:40:00,73.8,50.5,30.13,ENE,63,2.0,0.0,44,0.00,,,0.00,WeatherTracker,2013-08-06 14:40:00,
2013-08-06 10:45:00,74.3,51.0,30.13,SW,227,3.0,0.0,44,0.00,,,0.00,WeatherTracker,2013-08-06 14:45:00,
2013-08-06 10:55:00,74.4,51.7,30.13,WSW,252,1.0,0.0,45,0.00,,,0.00,WeatherTracker,2013-08-06 14:55:00,
2013-08-06 11:00:00,74.6,51.2,30.13,ESE,119,3.0,0.0,44,0.00,,,0.00,WeatherTracker,2013-08-06 15:00:00,
2013-08-06 11:10:00,74.9,52.7,30.13,West,273,2.0,0.0,46,0.00,,,0.00,WeatherTracker,2013-08-06 15:10:00,
2013-08-06 11:20:00,75.7,50.3,30.12,South,172,2.0,0.0,41,0.00,,,0.00,WeatherTracker,2013-08-06 15:20:00,
2013-08-06 11:25:00,75.6,50.2,30.13,West,277,1.0,0.0,41,0.00,,,0.00,WeatherTracker,2013-08-06 15:25:00,
2013-08-06 11:35:00,74.9,51.5,30.12,WSW,245,4.0,0.0,44,0.00,,,0.00,WeatherTracker,2013-08-06 15:35:00,
2013-08-06 11:45:00,74.8,50.8,30.13,NNW,342,3.0,0.0,43,0.00,,,0.00,WeatherTracker,2013-08-06 15:45:00,
2013-08-06 11:55:00,75.7,52.2,30.12,SSW,212,3.0,0.0,44,0.00,,,0.00,WeatherTracker,2013-08-06 15:55:00,
2013-08-06 12:00:00,76.0,51.2,30.12,SSW,202,1.0,0.0,42,0.00,,,0.00,WeatherTracker,2013-08-06 16:00:00,
2013-08-06 12:05:00,76.2,52.7,30.12,NNW,331,0.0,0.0,44,0.00,,,0.00,WeatherTracker,2013-08-06 16:05:00,
2013-08-06 12:15:00,76.6,51.8,30.12,West,259,2.0,0.0,42,0.00,,,0.00,WeatherTracker,2013-08-06 16:15:00,
2013-08-06 12:20:00,76.4,52.9,30.12,West,269,5.0,0.0,44,0.00,,,0.00,WeatherTracker,2013-08-06 16:20:00,
2013-08-06 12:30:00,76.3,52.1,30.12,WNW,288,2.0,0.0,43,0.00,,,0.00,WeatherTracker,2013-08-06 16:30:00,
2013-08-06 12:35:00,75.6,53.3,30.12,ESE,115,1.0,0.0,46,0.00,,,0.00,WeatherTracker,2013-08-06 16:35:00,
2013-08-06 12:45:00,76.2,52.7,30.13,SSE,157,0.0,0.0,44,0.00,,,0.00,WeatherTracker,2013-08-06 16:45:00,
2013-08-06 12:50:00,76.1,53.2,30.13,West,273,0.0,0.0,45,0.00,,,0.00,WeatherTracker,2013-08-06 16:50:00,
2013-08-06 13:00:00,75.9,53.0,30.13,SW,229,1.0,0.0,45,0.00,,,0.00,WeatherTracker,2013-08-06 17:00:00,
2013-08-06 13:05:00,76.3,52.8,30.13,ENE,78,2.0,0.0,44,0.00,,,0.00,WeatherTracker,2013-08-06 17:05:00,
2013-08-06 13:15:00,76.4,52.9,30.13,ESE,117,1.0,0.0,44,0.00,,,0.00,WeatherTracker,2013-08-06 17:15:00,
2013-08-06 13:25:00,77.0,53.4,30.12,ESE,115,2.0,0.0,44,0.00,,,0.00,WeatherTracker,2013-08-06 17:25:00,
2013-08-06 13:35:00,79.6,51.7,30.12,WNW,300,2.0,0.0,38,0.00,,,0.00,WeatherTracker,2013-08-06 17:35:00,
2013-08-06 13:40:00,79.4,52.9,30.12,North,5,3.0,0.0,40,0.00,,,0.00,WeatherTracker,2013-08-06 17:40:00,
2013-08-06 13:45:00,79.1,52.7,30.12,South,189,4.0,0.0,40,0.00,,,0.00,WeatherTracker,2013-08-06 17:45:00,
2013-08-06 13:50:00,78.9,51.8,30.12,WNW,294,0.0,0.0,39,0.00,,,0.00,WeatherTracker,2013-08-06 17:50:00,
2013-08-06 14:00:00,78.6,50.8,30.12,East,90,1.0,0.0,38,0.00,,,0.00,WeatherTracker,2013-08-06 18:00:00,
2013-08-06 14:05:00,78.6,53.6,30.12,West,264,4.0,0.0,42,0.00,,,0.00,WeatherTracker,2013-08-06 18:05:00,
2013-08-06 14:10:00,78.4,53.4,30.12,WSW,253,7.0,0.0,42,0.00,,,0.00,WeatherTracker,2013-08-06 18:10:00,
2013-08-06 14:20:00,78.6,52.2,30.12,ENE,65,3.0,0.0,40,0.00,,,0.00,WeatherTracker,2013-08-06 18:20:00,
2013-08-06 14:25:00,78.7,53.0,30.12,NNW,342,2.0,0.0,41,0.00,,,0.00,WeatherTracker,2013-08-06 18:25:00,
2013-08-06 14:35:00,78.8,51.7,30.11,NNE,12,5.0,0.0,39,0.00,,,0.00,WeatherTracker,2013-08-06 18:35:00,
2013-08-06 14:45:00,79.6,53.8,30.11,NW,307,3.0,0.0,41,0.00,,,0.00,WeatherTracker,2013-08-06 18:45:00,
2013-08-06 14:50:00,80.3,53.1,30.11,SSW,207,0.0,0.0,39,0.00,,,0.00,WeatherTracker,2013-08-06 18:50:00,
2013-08-06 14:55:00,80.6,54.7,30.11,SW,226,3.0,0.0,41,0.00,,,0.00,WeatherTracker,2013-08-06 18:55:00,
2013-08-06 15:00:00,80.4,54.5,30.11,WSW,238,5.0,0.0,41,0.00,,,0.00,WeatherTracker,2013-08-06 19:00:00,
2013-08-06 15:10:00,80.2,53.7,30.11,SW,236,2.0,0.0,40,0.00,,,0.00,WeatherTracker,2013-08-06 19:10:00,
2013-08-06 15:15:00,79.9,52.7,30.12,South,175,0.0,0.0,39,0.00,,,0.00,WeatherTracker,2013-08-06 19:15:00,
2013-08-06 15:25:00,79.8,53.3,30.11,SSW,208,1.0,0.0,40,0.00,,,0.00,WeatherTracker,2013-08-06 19:25:00,
2013-08-06 15:30:00,79.7,52.5,30.12,SSE,157,1.0,0.0,39,0.00,,,0.00,WeatherTracker,2013-08-06 19:30:00,
2013-08-06 15:35:00,79.6,53.8,30.12,South,189,0.0,0.0,41,0.00,,,0.00,WeatherTracker,2013-08-06 19:35:00,
2013-08-06 15:40:00,79.6,51.7,30.11,SE,138,1.0,0.0,38,0.00,,,0.00,WeatherTracker,2013-08-06 19:40:00,
2013-08-06 15:50:00,79.0,53.9,30.11,SE,126,3.0,0.0,42,0.00,,,0.00,WeatherTracker,2013-08-06 19:50:00,
2013-08-06 15:55:00,79.0,53.3,30.11,SW,221,2.0,0.0,41,0.00,,,0.00,WeatherTracker,2013-08-06 19:55:00,
2013-08-06 16:05:00,79.2,53.4,30.11,ESE,119,4.0,0.0,41,0.00,,,0.00,WeatherTracker,2013-08-06 20:05:00,
2013-08-06 16:15:00,79.5,53.7,30.11,South,176,2.0,0.0,41,0.00,,,0.00,WeatherTracker,2013-08-06 20:15:00,
2013-08-06 16:20:00,79.6,55.1,30.11,WSW,241,2.0,0.0,43,0.00,,,0.00,WeatherTracker,2013-08-06 20:20:00,
2013-08-06 16:30:00,79.4,54.3,30.11,South,179,2.0,0.0,42,0.00,,,0.00,WeatherTracker,2013-08-06 20:30:00,
2013-08-06 16:35:00,79.4,53.6,30.11,SE,146,2.0,0.0,41,0.00,,,0.00,WeatherTracker,2013-08-06 20:35:00,
2013-08-06 16:40:00,79.6,55.7,30.11,SW,232,2.0,0.0,44,0.00,,,0.00,WeatherTracker,2013-08-06 20:40:00,
2013-08-06 16:45:00,79.6,52.4,30.11,SSE,168,2.0,0.0,39,0.00,,,0.00,WeatherTracker,2013-08-06 20:45:00,
2013-08-06 16:55:00,79.7,54.6,30.11,WSW,257,1.0,0.0,42,0.00,,,0.00,WeatherTracker,2013-08-06 20:55:00,
2013-08-06 17:00:00,79.5,53.0,30.11,WSW,254,1.0,0.0,40,0.00,,,0.00,WeatherTracker,2013-08-06 21:00:00,
2013-08-06 17:05:00,79.4,53.6,30.11,SW,233,1.0,0.0,41,0.00,,,0.00,WeatherTracker,2013-08-06 21:05:00,
2013-08-06 17:10:00,79.1,54.0,30.11,SW,230,4.0,0.0,42,0.00,,,0.00,WeatherTracker,2013-08-06 21:10:00,
2013-08-06 17:15:00,79.0,54.6,30.11,WSW,243,2.0,0.0,43,0.00,,,0.00,WeatherTracker,2013-08-06 21:15:00,
2013-08-06 17:20:00,79.1,53.4,30.11,WSW,246,1.0,0.0,41,0.00,,,0.00,WeatherTracker,2013-08-06 21:20:00,
2013-08-06 17:25:00,79.1,54.7,30.11,SW,224,2.0,0.0,43,0.00,,,0.00,WeatherTracker,2013-08-06 21:25:00,
2013-08-06 17:30:00,78.9,53.8,30.11,West,266,2.0,0.0,42,0.00,,,0.00,WeatherTracker,2013-08-06 21:30:00,
2013-08-06 17:40:00,78.4,55.9,30.11,SW,221,2.0,0.0,46,0.00,,,0.00,WeatherTracker,2013-08-06 21:40:00,
2013-08-06 17:45:00,78.3,55.8,30.11,West,259,1.0,0.0,46,0.00,,,0.00,WeatherTracker,2013-08-06 21:45:00,
2013-08-06 17:50:00,78.2,55.7,30.11,SSW,211,1.0,0.0,46,0.00,,,0.00,WeatherTracker,2013-08-06 21:50:00,
2013-08-06 17:55:00,78.4,55.3,30.11,South,174,2.0,0.0,45,0.00,,,0.00,WeatherTracker,2013-08-06 21:55:00,
2013-08-06 18:00:00,78.4,55.3,30.11,SW,229,1.0,0.0,45,0.00,,,0.00,WeatherTracker,2013-08-06 22:00:00,
2013-08-06 18:05:00,78.5,54.8,30.11,SW,236,3.0,0.0,44,0.00,,,0.00,WeatherTracker,2013-08-06 22:05:00,
2013-08-06 18:10:00,78.5,54.8,30.11,WSW,249,1.0,0.0,44,0.00,,,0.00,WeatherTracker,2013-08-06 22:10:00,
2013-08-06 18:20:00,78.0,55.5,30.11,ESE,117,1.0,0.0,46,0.00,,,0.00,WeatherTracker,2013-08-06 22:20:00,
2013-08-06 18:25:00,77.7,56.4,30.11,SW,230,1.0,0.0,48,0.00,,,0.00,WeatherTracker,2013-08-06 22:25:00,
2013-08-06 18:35:00,76.6,56.0,30.11,ESE,123,1.0,0.0,49,0.00,,,0.00,WeatherTracker,2013-08-06 22:35:00,
2013-08-06 18:40:00,76.0,56.0,30.11,South,182,3.0,0.0,50,0.00,,,0.00,WeatherTracker,2013-08-06 22:40:00,
2013-08-06 18:50:00,75.5,56.6,30.12,SE,129,4.0,0.0,52,0.00,,,0.00,WeatherTracker,2013-08-06 22:50:00,
2013-08-06 18:55:00,75.0,56.7,30.12,South,188,3.0,0.0,53,0.00,,,0.00,WeatherTracker,2013-08-06 22:55:00,
2013-08-06 19:00:00,74.5,56.2,30.12,South,171,2.0,0.0,53,0.00,,,0.00,WeatherTracker,2013-08-06 23:00:00,
2013-08-06 19:10:00,73.6,55.9,30.12,SE,132,0.0,0.0,54,0.00,,,0.00,WeatherTracker,2013-08-06 23:10:00,
2013-08-06 19:15:00,73.2,55.5,30.12,South,171,2.0,0.0,54,0.00,,,0.00,WeatherTracker,2013-08-06 23:15:00,
2013-08-06 19:20:00,72.9,55.8,30.12,South,176,0.0,0.0,55,0.00,,,0.00,WeatherTracker,2013-08-06 23:20:00,
2013-08-06 19:25:00,72.6,56.0,30.12,SSE,165,0.0,0.0,56,0.00,,,0.00,WeatherTracker,2013-08-06 23:25:00,
2013-08-06 19:30:00,72.4,55.8,30.12,SSE,161,0.0,0.0,56,0.00,,,0.00,WeatherTracker,2013-08-06 23:30:00,
2013-08-06 19:40:00,71.9,56.3,30.13,SSW,202,0.0,0.0,58,0.00,,,0.00,WeatherTracker,2013-08-06 23:40:00,
2013-08-06 19:45:00,71.7,56.1,30.13,SSW,202,0.0,0.0,58,0.00,,,0.00,WeatherTracker,2013-08-06 23:45:00,
2013-08-06 19:55:00,71.2,56.6,30.13,SSW,200,0.0,0.0,60,0.00,,,0.00,WeatherTracker,2013-08-06 23:55:00,
2013-08-06 20:00:00,70.8,56.7,30.13,SSW,200,0.0,0.0,61,0.00,,,0.00,WeatherTracker,2013-08-07 00:00:00,
2013-08-06 20:10:00,70.0,56.8,30.13,SSW,206,1.0,0.0,63,0.00,,,0.00,WeatherTracker,2013-08-07 00:10:00,
2013-08-06 20:20:00,69.2,56.5,30.13,West,281,0.0,0.0,64,0.00,,,0.00,WeatherTracker,2013-08-07 00:20:00,
2013-08-06 20:30:00,68.5,56.7,30.14,West,280,0.0,0.0,66,0.00,,,0.00,WeatherTracker,2013-08-07 00:30:00,
2013-08-06 20:35:00,68.3,56.5,30.14,West,280,0.0,0.0,66,0.00,,,0.00,WeatherTracker,2013-08-07 00:35:00,
2013-08-06 20:40:00,68.0,56.6,30.14,West,280,0.0,0.0,67,0.00,,,0.00,WeatherTracker,2013-08-07 00:40:00,
2013-08-06 20:50:00,67.6,56.7,30.14,SW,229,0.0,0.0,68,0.00,,,0.00,WeatherTracker,2013-08-07 00:50:00,
2013-08-06 21:00:00,67.3,56.8,30.14,SW,229,0.0,0.0,69,0.00,,,0.00,WeatherTracker,2013-08-07 01:00:00,
2013-08-06 21:10:00,66.9,56.8,30.14,WSW,237,0.0,0.0,70,0.00,,,0.00,WeatherTracker,2013-08-07 01:10:00,
2013-08-06 21:15:00,66.8,57.1,30.14,WSW,237,0.0,0.0,71,0.00,,,0.00,WeatherTracker,2013-08-07 01:15:00,
2013-08-06 21:25:00,66.4,57.1,30.14,WSW,237,0.0,0.0,72,0.00,,,0.00,WeatherTracker,2013-08-07 01:25:00,
2013-08-06 21:35:00,66.0,57.5,30.14,WSW,237,0.0,0.0,74,0.00,,,0.00,WeatherTracker,2013-08-07 01:35:00,
2013-08-06 21:45:00,65.5,57.0,30.14,WSW,237,0.0,0.0,74,0.00,,,0.00,WeatherTracker,2013-08-07 01:45:00,
2013-08-06 21:50:00,65.2,57.1,30.14,WSW,237,0.0,0.0,75,0.00,,,0.00,WeatherTracker,2013-08-07 01:50:00,
2013-08-06 22:00:00,64.8,57.1,30.14,WSW,237,0.0,0.0,76,0.00,,,0.00,WeatherTracker,2013-08-07 02:00:00,
2013-08-06 22:05:00,64.5,56.8,30.14,WSW,237,0.0,0.0,76,0.00,,,0.00,WeatherTracker,2013-08-07 02:05:00,
2013-08-06 22:10:00,64.4,56.7,30.14,WSW,237,0.0,0.0,76,0.00,,,0.00,WeatherTracker,2013-08-07 02:10:00,
2013-08-06 22:20:00,64.1,56.7,30.14,WSW,237,0.0,0.0,77,0.00,,,0.00,WeatherTracker,2013-08-07 02:20:00,
2013-08-06 22:30:00,63.6,57.0,30.14,WSW,237,0.0,0.0,79,0.00,,,0.00,WeatherTracker,2013-08-07 02:30:00,
2013-08-06 22:35:00,63.4,56.8,30.14,WSW,237,0.0,0.0,79,0.00,,,0.00,WeatherTracker,2013-08-07 02:35:00,
2013-08-06 22:45:00,62.8,56.9,30.14,WSW,237,0.0,0.0,81,0.00,,,0.00,WeatherTracker,2013-08-07 02:45:00,
2013-08-06 22:50:00,62.5,56.6,30.14,WSW,237,0.0,0.0,81,0.00,,,0.00,WeatherTracker,2013-08-07 02:50:00,
2013-08-06 23:00:00,62.2,56.6,30.14,WSW,237,0.0,0.0,82,0.00,,,0.00,WeatherTracker,2013-08-07 03:00:00,
2013-08-06 23:10:00,61.8,56.6,30.14,WSW,237,0.0,0.0,83,0.00,,,0.00,WeatherTracker,2013-08-07 03:10:00,
2013-08-06 23:15:00,61.7,56.5,30.14,WSW,237,0.0,0.0,83,0.00,,,0.00,WeatherTracker,2013-08-07 03:15:00,
2013-08-06 23:20:00,61.6,56.4,30.14,WSW,237,0.0,0.0,83,0.00,,,0.00,WeatherTracker,2013-08-07 03:20:00,
2013-08-06 23:30:00,61.3,56.4,30.14,WSW,237,0.0,0.0,84,0.00,,,0.00,WeatherTracker,2013-08-07 03:30:00,
2013-08-06 23:35:00,61.1,56.6,30.14,WSW,237,1.0,0.0,85,0.00,,,0.00,WeatherTracker,2013-08-07 03:35:00,
2013-08-06 23:40:00,60.8,56.3,30.15,WSW,238,0.0,0.0,85,0.00,,,0.00,WeatherTracker,2013-08-07 03:40:00,
2013-08-06 23:50:00,60.4,56.2,30.14,WSW,238,1.0,0.0,86,0.00,,,0.00,WeatherTracker,2013-08-07 03:50:00,
2013-08-06 23:55:00,60.2,56.0,30.14,WSW,238,0.0,0.0,86,0.00,,,0.00,WeatherTracker,2013-08-07 03:55:00,